Volver al catálogo

COSMOS 970 DEB

ActivoLEO
NORAD 12860·DEBRIS·🇷🇺 Russia

Lanzado Dec 21, 1977 desde Baikonur Cosmodrome

Loading…

Próximos Pases (próximas 24 horas)

TLE

ActualizadoSource: Space-Track

Época: Sep 13, 2026, 16:17 UTC

1 12860U 77121AN  26256.67863947  .00000064  00000-0  16975-3 0  9997
2 12860  65.8047 153.7287 0137236 285.1796  91.9287 13.63514054323480

Sigue COSMOS 970 DEB en tiempo real con AllMySat

Download on the App Store